Flag for U.S.A. Weather past 2 weeks in Jackson, Wyoming, U.S.A.

Now
45 °F

Overcast.


Feels Like: 37 °F
Forecast: 33 / 48 °F
Wind: 16 mph from South

Location: Jackson Hole

Current Time: Oct 21, 2014 at 2:34:51 PM

Latest Report: Oct 21, 2014 at 1:52 PM


Visibility: 10 mi

Pressure: 30.02 "Hg

Humidity: 76%

Dew point: 37 °F

Location of JacksonLocation

Historic Weather in Jackson — Graph

°F

Jackson temperature yesterday

Maximum temperature yesterday: 68 °F (at 3:51 PM)
Minimum temperature yesterday: 25 °F (at 5:15 AM)
Average temperature yesterday: 38 °F

Past Weeks' High & Low Weather Summary

 TemperatureHumidityPressure
High72 °F (Oct 9, 4:51 PM)100% (Oct 8, 6:53 AM)30.30 "Hg (Oct 8, 6:53 AM)
Low21 °F (Oct 13, 3:55 AM)13% (Oct 9, 4:51 PM)29.86 "Hg (Oct 11, 10:55 PM)
Average40 °F71%30.14 "Hg
* Reported Oct 6 12:51 PM — Oct 21 12:51 PM, Jackson, Weather by CustomWeather, © 2014

Note: Actual official high and low records may vary slightly from our data, if they occured in-between our weather recording intervals... More about our weather records

Advertising

Jackson weather history for previous 24 hours

 ConditionsComfort  
Time TempWeatherWind HumidityBarometerVisibility
12:51 PM
Oct 21
45 °FScattered showers. Cloudy.6 mph81%29.99 "Hg10 mi
11:52 AM45 °FScattered showers. Mostly cloudy.6 mph93%29.98 "Hg8 mi
10:51 AM43 °FScattered showers. Broken clouds.No wind100%29.97 "Hg10 mi
9:51 AM39 °FScattered showers. Broken clouds.3 mph100%29.97 "Hg10 mi
8:52 AM39 °FOvercast.No wind93%29.95 "Hg10 mi
7:52 AM36 °FMostly cloudy.No wind100%29.95 "Hg10 mi
6:52 AM37 °FMostly cloudy.7 mph87%29.95 "Hg10 mi
6:35 AM37 °FOvercast.6 mph87%29.96 "Hg10 mi
5:55 AM37 °FMostly cloudy.5 mph87%29.99 "Hg10 mi
5:35 AM36 °FOvercast.3 mph93%29.99 "Hg10 mi
5:15 AM36 °FOvercast.No wind81%29.99 "Hg10 mi
4:55 AM34 °FMostly cloudy.3 mph87%29.97 "Hg10 mi
4:35 AM32 °FPassing clouds.3 mph87%29.97 "Hg10 mi
4:15 AM32 °FClear.6 mph87%29.97 "Hg10 mi
3:55 AM34 °FPassing clouds.7 mph81%29.97 "Hg10 mi
3:35 AM32 °FPassing clouds.7 mph87%29.98 "Hg10 mi
2:55 AM34 °FPassing clouds.7 mph87%29.99 "Hg10 mi
2:35 AM36 °FPassing clouds.8 mph81%30.00 "Hg10 mi
2:15 AM34 °FPassing clouds.6 mph87%30.00 "Hg10 mi
1:55 AM34 °FPassing clouds.5 mph81%30.00 "Hg10 mi
1:35 AM34 °FClear.6 mph81%30.00 "Hg10 mi
1:15 AM36 °FPassing clouds.6 mph81%30.01 "Hg10 mi
12:55 AM36 °FPassing clouds.5 mph81%30.01 "Hg10 mi
12:35 AM34 °FPassing clouds.6 mph87%30.01 "Hg10 mi
12:15 AM36 °FClear.6 mph81%30.02 "Hg10 mi
11:55 PM
Oct 20
36 °FClear.8 mph81%30.02 "Hg10 mi
11:35 PM37 °FClear.8 mph75%30.02 "Hg10 mi
11:15 PM37 °FClear.7 mph75%30.03 "Hg10 mi
10:55 PM36 °FClear.9 mph81%30.03 "Hg10 mi
10:35 PM37 °FClear.8 mph75%30.03 "Hg10 mi
10:15 PM39 °FClear.3 mph70%30.03 "Hg10 mi
9:55 PM37 °FClear.9 mph75%30.03 "Hg10 mi
9:15 PM39 °FClear.7 mph70%30.04 "Hg10 mi
8:55 PM39 °FClear.6 mph70%30.04 "Hg10 mi
7:53 PM48 °FClear.No wind46%30.04 "Hg10 mi
6:52 PM57 °FSunny.No wind36%30.03 "Hg10 mi
5:59 PM61 °FScattered clouds.5 mph31%30.04 "Hg10 mi
4:50 PM66 °FScattered clouds.8 mph26%30.05 "Hg10 mi
3:51 PM68 °FSunny.7 mph23%30.06 "Hg10 mi
2:51 PM66 °FSunny.7 mph26%30.08 "Hg10 mi
Weather by CustomWeather, © 2014

See weather overviewHow to use our weather pages